STARLINK-3815 (52338 NORAD) Tracking and Keplerian Element Data

This shows tracking and keplerian element data for the satellite.

Feedback or suggestion? Click here.




ElementValue
Catalog52338
NameSTARLINK-3815
Epoch Orbit130
Epoch Day167.08334491
Epoch Year2022
RAAN207.3883
Inclination53.2174
Eccentricity0.0001778
Argument of Perigee39.7537
Mean Anonmoly101.2933
Mean Motion15.32897053
Decay Rate-0.00717714
L11 52338U 22045H 22167.08334491 -.00717714 00000+0 -24130-1 0 9993
L22 52338 53.2174 207.3883 0001778 39.7537 101.2933 15.32897053 1309

Live tracking and technical data element details for STARLINK-3815 (NORAD 52338). STARLINK-3815 can be tracked NOW for your location showing map with azimuth and elevation plus other details from your city location.

Track the satellite on the map from your city or location and see movement details for azimuth, elevation, latitude, longitude, range, height, and movement on the map or in text.







IsCatalogInMostPopularTable: catalog: 52338, numindb: 1
Update: records affected: 1



GetName: 52338 STARLINK-3815

Hit Count: updated at: Mon, 27 Jun 2022 06:14:06 GMT